Central Point, OR

10:50 PM PDT on August 23, 2016 (GMT -0700)
Rogue Valley International-Medford

Weather History for KMFR - August, 2013

Change the Weather History Date:

Saturday, August 31, 2013

  Actual Average Record
Temperature  
Mean Temperature 78 °F 71 °F  
Max Temperature 96 °F 88 °F 104 °F (1998)
Min Temperature 59 °F 54 °F 41 °F (1932)
Degree Days  
Heating Degree Days 0 0  
Month to date heating degree days 0 0  
Since 1 June heating degree days 35 64  
Since 1 July heating degree days 0 10  
Cooling Degree Days 13 6  
Month to date cooling degree days 297 275  
Year to date cooling degree days 915 707  
Since 1 June cooling degree days 880 669  
Growing Degree Days 27 (Base 50)    
Moisture  
Dew Point 53 °F    
Average Humidity 52    
Maximum Humidity 80    
Minimum Humidity 23    
Precipitation  
Precipitation 0.00 in 0.02 in 0.20 in (1944)
Month to date precipitation 0.42 0.40  
Year to date precipitation 4.55 10.14  
Snow  
Snow 0.00 in 0.00 in - ()
Month to date snowfall 0.0 0.0  
Since 1 July snowfall 0.0 0.0  
Snow Depth 0.00 in    
Sea Level Pressure  
Sea Level Pressure 29.88 in    
Wind  
Wind Speed 5 mph (WNW)    
Max Wind Speed 17 mph    
Max Gust Speed 22 mph    
Visibility 10 miles    
Events      
T = Trace of Precipitation, MM = Missing Value Source: NWS Daily Summary

Daily Weather History Graph

Daily Weather History Graph

Search for Another Location

Airport or City:

Trip Planner

Search our weather history database for the weather conditions in past years. The results will help you decide how hot, cold, wet, or windy it might be!

Date:

Astronomy

Aug. 31, 2013 Rise Set
Actual Time 6:35 AM PDT 7:46 PM PDT
Civil Twilight 6:06 AM PDT 8:15 PM PDT
Nautical Twilight 5:32 AM PDT 8:50 PM PDT
Astronomical Twilight 4:55 AM PDT 9:26 PM PDT
Moon 2:06 AM PDT (8/31) 4:51 PM PDT (8/31)
Length of Visible Light 14h 08m
Length of Day
13h 10m
Waning Crescent, 20% of the Moon is Illuminated
Aug 31
Waning Crescent
Sep 5
New
Sep 12
First Quarter
Sep 19
Full
Sep 26
Last Quarter

Hourly Weather History & Observations

Time (PDT) Temp. Heat Index Dew Point Humidity Pressure Visibility Wind Dir Wind Speed Gust Speed Precip Events Conditions
12:53 AM 71.1 °F - 57.0 °F 61% 29.99 in 10.0 mi NW 6.9 mph - N/A   Clear
1:53 AM 68.0 °F - 55.9 °F 65% 29.98 in 10.0 mi SW 3.5 mph - N/A   Clear
2:53 AM 66.0 °F - 55.0 °F 68% 29.97 in 10.0 mi SW 3.5 mph - N/A   Clear
3:53 AM 63.0 °F - 55.0 °F 75% 29.97 in 10.0 mi NNE 3.5 mph - N/A   Clear
4:53 AM 62.1 °F - 53.1 °F 72% 29.97 in 10.0 mi Calm Calm - N/A   Clear
5:53 AM 60.1 °F - 53.1 °F 78% 29.97 in 10.0 mi Calm Calm - N/A   Clear
6:53 AM 59.0 °F - 53.1 °F 81% 29.97 in 10.0 mi Calm Calm - N/A   Clear
7:53 AM 62.1 °F - 53.1 °F 72% 29.97 in 10.0 mi Calm Calm - N/A   Clear
8:53 AM 64.9 °F - 54.0 °F 68% 29.96 in 10.0 mi Calm Calm - N/A   Clear
9:53 AM 70.0 °F - 54.0 °F 57% 29.94 in 10.0 mi NNW 3.5 mph - N/A   Clear
10:53 AM 73.9 °F - 55.0 °F 52% 29.92 in 10.0 mi Calm Calm - N/A   Clear
11:53 AM 80.1 °F 80.1 °F 55.0 °F 42% 29.89 in 10.0 mi Calm Calm - N/A   Clear
12:53 PM 84.0 °F 82.9 °F 55.0 °F 37% 29.85 in 10.0 mi North 4.6 mph - N/A   Clear
1:53 PM 89.1 °F 87.1 °F 55.0 °F 31% 29.82 in 10.0 mi Calm Calm - N/A   Clear
2:53 PM 93.9 °F - 52.0 °F 24% 29.79 in 10.0 mi WNW 9.2 mph - N/A   Clear
3:53 PM 95.0 °F - 52.0 °F 23% 29.77 in 10.0 mi WNW 11.5 mph - N/A   Clear
4:53 PM 93.9 °F - 52.0 °F 24% 29.76 in 10.0 mi WNW 16.1 mph 20.7 mph N/A   Clear
5:53 PM 93.0 °F 90.8 °F 54.0 °F 27% 29.76 in 10.0 mi West 15.0 mph - N/A   Clear
6:53 PM 89.1 °F 86.9 °F 54.0 °F 30% 29.77 in 10.0 mi WNW 12.7 mph - N/A   Clear
7:53 PM 84.0 °F - 51.1 °F 32% 29.80 in 10.0 mi WNW 9.2 mph - N/A   Clear
8:53 PM 81.0 °F - 48.0 °F 31% 29.83 in 10.0 mi NW 9.2 mph - N/A   Clear
9:53 PM 79.0 °F - 45.0 °F 30% 29.84 in 10.0 mi NW 6.9 mph - N/A   Clear
10:53 PM 77.0 °F - 46.0 °F 33% 29.85 in 10.0 mi WNW 9.2 mph - N/A   Clear
11:53 PM 73.9 °F - 46.9 °F 38% 29.85 in 10.0 mi WNW 4.6 mph - N/A   Clear